Regional Weather Roundup
Issued by NWS Portland, ME

Current Version | Previous Version | Text Only | Print | Product List | Glossary Off
Versions: 1 2 3 4 5 6 7 8 9 10 11 12 13 14 15 16 17 18 19 20 21 22 23 24 25 26 27 28 29 30 31 32 33 34 35 36 37 38 39 40 41 42 43 44 45 46 47 48 49 50
000 ASUS41 KGYX 240810 RWRGYX WEATHER ROUNDUP FOR MAINE AND NEW HAMPSHIRE NATIONAL WEATHER SERVICE GRAY ME 400 AM EDT MON JUL 24 2017 MEZ002-005-006-010-012-015-018-020-021-024-026-027-029-240900- MAINE CITY SKY/WX TMP DP RH WIND PRES REMARKS PORTLAND CLOUDY 62 54 74 CALM 29.97R SANFORD N/A 55 53 93 CALM 29.97R BAR HARBOR MOCLDY 51 49 92 CALM 29.99R WISCASSET CLOUDY 56 53 90 CALM 29.99R ROCKLAND CLOUDY 53 50 89 CALM 29.97S FRYEBURG CLOUDY 57 56 96 CALM 29.97S LEWISTONAUBURN MOCLDY 56 54 93 CALM 29.98R AUGUSTA CLOUDY 57 51 80 CALM 29.97S WATERVILLE CLOUDY 54 51 90 CALM 29.95S BANGOR MOCLDY 53 51 93 CALM 29.99R GREENVILLE N/A 53 50 89 NE5 29.98R MILLINOCKET PTCLDY 48 48 100 CALM 30.00S HOULTON CLEAR 44 42 93 CALM 29.98S PRESQUE ISLE CLEAR 44 43 96 S5 30.01S FRENCHVILLE CLEAR 45 41 86 N7 30.01R CARIBOU CLEAR 48 44 86 N3 29.99S $$ NHZ002-005-008-009-011-012-014-240900- NEW HAMPSHIRE CITY SKY/WX TMP DP RH WIND PRES REMARKS PORTSMOUTH CLOUDY 62 57 84 CALM 29.94S ROCHESTER CLOUDY 57 52 83 CALM 29.95S NASHUA CLOUDY 63 56 78 CALM 29.94S MANCHESTER CLOUDY 62 53 72 E5 29.92F CONCORD MOCLDY 60 53 77 CALM 29.94F LACONIA CLOUDY 61 54 77 CALM 29.96R PLYMOUTH MOCLDY 60 57 92 CALM 29.95R BERLIN CLOUDY 52 49 89 CALM 29.96F WHITEFIELD CLOUDY 58 52 80 CALM 29.93F JAFFREY CLOUDY 60 51 72 CALM 29.94F KEENE CLOUDY 60 52 74 CALM 29.92F LEBANON CLOUDY 64 56 75 SE3 29.90F MT WASHINGTON FOG 46 46 100 SE16 N/A VSB 1/16 $$ VTZ005-007-008-240900- VERMONT CITY SKY/WX TMP DP RH WIND PRES REMARKS ST JOHNSBURY N/A 60 56 86 MISG 29.91S MONTPELIER CLOUDY 59 56 89 CALM 29.95S BURLINGTON CLOUDY 69 50 50 SE9 29.86S $$ MAZ007-012-024-CTZ003-RIZ002-NYZ038-NYZ072-240900- SOUTHERN NEW ENGLAND AND NY CITY SKY/WX TMP DP RH WIND PRES REMARKS BOSTON CLOUDY 64 59 83 E6 29.93F WORCESTER LGT RAIN 61 52 72 E6 29.93F NANTUCKET CLOUDY 63 49 60 E15 29.90F PROVIDENCE CLOUDY 65 59 81 NE7 29.92S HARTFORD CLOUDY 65 57 75 E5 29.88F ALBANY CLOUDY 64 61 90 CALM 29.86S NEW YORK CITY CLOUDY 72 68 87 E9 29.79S $$ ANZ081-ANZ082-ANZ150-NHZ014-MEZ023>029-240900- COASTAL MARINE OBSERVATIONS STATION/POSITION TIME TEMP WIND PRES WAVE AIR SEA DIR/SP/G HT/PER (UTC) (F) (DEG/KT/KT) (MB) (FT/S) MOUNT DESERT ROC 0800 60 1015.2R MATINICUS ROCK 0700 59 360/ 6/ 6 1014.4F ISLE OF SHOALS 0700 64 100/ 2/ 2 1013.8F JEFFREYS LEDGE 0706 64 N/A 2/ 9 CASHES LEDGE BUO 0650 63 64 1014.6 2/10 GEORGES BANK BUO 0650 64 65 1012.8 4/ 9 $$ .............KEY.............. WCI - WIND CHILL TC - TEMPERATURE IN CELSIUS VSB - VISIBILITY IN MILES HX - HEAT INDEX FAIR- INDICATES FEW OR NO CLOUDS BELOW 12,000 FT, WITH NO SIGNIFICANT WEATHER AND/OR OBSTRUCTIONS TO VISIBILITY.

USA.gov is the U.S. government's official web portal to all federal, state and local government web resources and services.